Overview Statistics Trail Chart Weather Telemetry Raw packets
 

This is the latest recevied weather packets stored in our database for station/object IW1RCO-13. If no packets are shown the sender has not sent any weather packets the latest 10 day(s).

<< 72 73 74 75 76 77 78 >>
Time Temp. Humidity Pressure Rain* Wind** Luminosity Snow
1788038665 18.89° C 72% 1016.2 hPa - - - -
1788038368 19.44° C 72% 1016.1 hPa - - - -
1788038072 18.89° C 71% 1016.1 hPa - - - -
1788037768 18.89° C 72% 1016.8 hPa - - - -
1788037471 18.89° C 71% 1016.2 hPa - - - -
1788037168 18.89° C 67% 1015.7 hPa - - - -
1788036871 18.89° C 67% 1016.2 hPa - - - -
1788036271 18.33° C 69% 1016.1 hPa - - - -
1788035967 18.33° C 73% 1015.8 hPa - - - -
1788035671 18.33° C 74% 1016.2 hPa - - - -
1788035367 18.33° C 73% 1017.1 hPa - - - -
1788035070 18.33° C 75% 1015.7 hPa - - - -
1788034767 18.33° C 77% 1015.7 hPa - - - -
1788034470 18.33° C 78% 1016.8 hPa - - - -
1788034167 17.78° C 82% 1015.9 hPa - - - -
1788033870 18.33° C 81% 1015.5 hPa - - - -
1788033566 17.78° C 84% 1016.1 hPa - - - -
1788033270 17.78° C 84% 1017 hPa - - - -
1788032966 17.78° C 84% 1016.4 hPa - - - -
1788032669 18.33° C 83% 1015.6 hPa - - - -
1788032366 18.33° C 83% 1016.1 hPa - - - -
1788032069 17.78° C 83% 1016 hPa - - - -
1788031766 17.78° C 83% 1015.8 hPa - - - -
1788031469 18.33° C 82% 1016.4 hPa - - - -
1788031165 18.33° C 81% 1016.6 hPa - - - -

* Rain since midnight (hover to see other rain measurements)
** Current wind speed in m/s (hover to see current wind gust speed)